sat.trackr.live / text

‹ back to catalog

STARLINK-34332

NORAD 64213 · 2025-117L

PAYLOAD ACTIVE UNKNOWN

§ Identity

Operator
Country
US
Launch date
2025-05-31
Launch site
AFWTR
Launch vehicle
Mass (kg)
RCS (m²)

Purposes: comms

External: N2YO · Heavens-Above · Gunter

§ Orbital elements

Epoch: 2026-09-20T11:12:47.541024Z

Period
93.85 min
Inclination
53.1588°
Eccentricity
0.0001030
Mean motion
15.34390456 rev/d
Perigee alt
462.0 km
Apogee alt
463.4 km
Semi-major
6,840.9 km
B*
6.9493e-4
RAAN
211.5750°
Arg perigee
74.2238°
Mean anomaly
285.8878°
Rev number
7,442

§ Raw data

STARLINK-343321 64213U 25117L   26263.46721691  .00023168  00000+0  69493-3 0  99902 64213  53.1588 211.5750 0001030  74.2238 285.8878 15.34390456 74422

JSON: /api/v1/satellites/64213 · /tle

For live sub-satellite position, see the globe view (requires WebGL).

§ Visibility from observer

Set your observer location to see the next 7 days of passes ≥ 10°. The values pass through the URL so the page stays shareable.

No JS? Fill the form by hand. The geolocation button needs JavaScript.